sat.trackr.live / text

‹ back to catalog

STARLINK-3541

NORAD 51854 · 2022-022C

PAYLOAD ACTIVE UNKNOWN

§ Identity

Operator
Country
US
Launch date
2022-03-03
Launch site
AFETR
Launch vehicle
Mass (kg)
RCS (m²)

Purposes: comms

External: N2YO · Heavens-Above · Gunter

§ Orbital elements

Epoch: 2026-05-25T02:26:05.336160Z

Period
94.90 min
Inclination
53.2153°
Eccentricity
0.0003410
Mean motion
15.17354624 rev/d
Perigee alt
511.5 km
Apogee alt
516.2 km
Semi-major
6,892.0 km
B*
9.9500e-4
RAAN
30.6139°
Arg perigee
108.3089°
Mean anomaly
251.8278°
Rev number
23,463

§ Raw data

STARLINK-35411 51854U 22022C   26145.10145065  .00019844  00000+0  99500-3 0  99922 51854  53.2153  30.6139 0003410 108.3089 251.8278 15.17354624234632

JSON: /api/v1/satellites/51854 · /tle

For live sub-satellite position, see the globe view (requires WebGL).

§ Visibility from observer

Set your observer location to see the next 7 days of passes ≥ 10°. The values pass through the URL so the page stays shareable.

No JS? Fill the form by hand. The geolocation button needs JavaScript.